Probability
0 0 0 0 0 0 0 0 0 0 0 0 6 16 19 35 65 77 84 77 77 74 58 65 68 65 58 52 45 35 35 32 39 39 32 29 32 32 35 29 39 39 45 55
0 0 0 0 0 0 0 0 0 0 0 0 0 0 13 26 45 61 65 61 61 55 48 48 48 55 55 42 39 42 35 32 35 29 26 26 26 39 35 29 29 26 29 29
0 0 0 0 0 0 0 0 0 0 0 0 0 0 0 13 35 42 42 45 42 39 39 42 42 42 39 45 39 39 29 29 19 19 10 13 10 10 10 13 13 16 19 19
0 0 0 0 0 0 0 0 0 0 0 0 0 0 0 3 16 29 42 48 42 32 26 23 26 26 26 32 26 23 16 16 16 13 10 10 6 6 6 6 6 6 6 6
0 0 0 0 0 0 0 0 0 0 0 0 0 0 0 0 6 13 16 26 26 29 26 16 16 13 16 16 16 13 10 6 3 3 6 3 0 0 0 0 0 0 0 0
0 0 0 0 0 0 0 0 0 0 0 0 0 0 0 0 0 0 3 10 19 23 23 19 10 6 3 6 10 10 10 3 3 3 0 0 0 0 0 0 0 0 0 0
0 0 0 0 0 0 0 0 0 0 0 0 0 0 0 0 0 0 0 10 6 6 13 10 6 0 0 3 10 10 10 6 3 3 0 0 0 0 0 0 0 0 0 0
0 0 0 0 0 0 0 0 0 0 0 0 0 0 0 0 0 0 3 3 3 3 3 3 3 0 0 6 3 6 10 6 3 0 0 0 0 0 0 0 0 0 0 0
0 0 0 0 0 0 0 0 0 0 0 0 0 0 0 0 0 0 3 3 3 3 3 3 3 0 0 0 0 0 0 3 0 0 0 0 0 0 0 0 0 0 0 0
0 0 0 0 0 0 0 0 0 0 0 0 0 0 0 0 0 0 0 0 0 0 0 0 0 0 0 0 0 0 0 0 0 0 0 0 0 0 0 0 0 0 0 0
0 0 0 0 0 0 0 0 0 0 0 0 0 0 0 0 0 0 0 0 0 0 0 0 0 0 0 0 0 0 0 0 0 0 0 0 0 0 0 0 0 0 0 0
0 0 0 0 0 0 0 0 0 0 0 0 0 0 0 0 0 0 0 0 0 0 0 0 0 0 0 0 0 0 0 0 0 0 0 0 0 0 0 0 0 0 0 0
0 0 0 0 0 0 0 0 0 0 0 0 0 0 0 0 0 0 0 0 0 0 0 0 0 0 0 0 0 0 0 0 0 0 0 0 0 0 0 0 0 0 0 0
0 0 0 0 0 0 0 0 0 0 0 0 0 0 0 0 0 0 0 0 0 0 0 0 0 0 0 0 0 0 0 0 0 0 0 0 0 0 0 0 0 0 0 0
0 0 0 0 0 0 0 0 0 0 0 0 0 0 0 0 0 0 0 0 0 0 0 0 0 0 0 0 0 0 0 0 0 0 0 0 0 0 0 0 0 0 0 0
0 0 0 0 0 0 0 0 0 0 0 0 0 0 0 0 0 0 0 0 0 0 0 0 0 0 0 0 0 0 0 0 0 0 0 0 0 0 0 0 0 0 0 0
0 0 0 0 0 0 0 0 0 0 0 0 0 0 0 0 0 0 0 0 0 0 0 0 0 0 0 0 0 0 0 0 0 0 0 0 0 0 0 0 0 0 0 0
0 0 0 0 0 0 0 0 0 0 0 0 0 0 0 0 0 0 0 0 0 0 0 0 0 0 0 0 0 0 0 0 0 0 0 0 0 0 0 0 0 0 0 0
0 0 0 0 0 0 0 0 0 0 0 0 0 0 0 0 0 0 0 0 0 0 0 0 0 0 0 0 0 0 0 0 0 0 0 0 0 0 0 0 0 0 0 0
0 0 0 0 0 0 0 0 0 0 0 0 0 0 0 0 0 0 0 0 0 0 0 0 0 0 0 0 0 0 0 0 0 0 0 0 0 0 0 0 0 0 0 0
0 0 0 0 0 0 0 0 0 0 0 0 0 0 0 0 0 0 0 0 0 0 0 0 0 0 0 0 0 0 0 0 0 0 0 0 0 0 0 0 0 0 0 0
0 0 0 0 0 0 0 0 0 0 0 0 0 0 0 0 0 0 0 0 0 0 0 0 0 0 0 0 0 0 0 0 0 0 0 0 0 0 0 0 0 0 0 0
0 0 0 0 0 0 0 0 0 0 0 0 0 0 0 0 0 0 0 0 0 0 0 0 0 0 0 0 0 0 0 0 0 0 0 0 0 0 0 0 0 0 0 0
0 0 0 0 0 0 0 0 0 0 0 0 0 0 0 0 0 0 0 0 0 0 0 0 0 0 0 0 0 0 0 0 0 0 0 0 0 0 0 0 0 0 0 0
0 0 0 0 0 0 0 0 0 0 0 0 0 0 0 0 0 0 0 0 0 0 0 0 0 0 0 0 0 0 0 0 0 0 0 0 0 0 0 0 0 0 0 0
0 0 0 0 0 0 0 0 0 0 0 0 0 0 0 0 0 0 0 0 0 0 0 0 0 0 0 0 0 0 0 0 0 0 0 0 0 0 0 0 0 0 0 0
Height
5856 5859 5860 5862 5864 5866 5868 5870 5872 5874 5875 5876 5877 5878 5878 5878 5878 5878 5877 5876 5876 5875 5873 5871 5869 5866 5864 5861 5859 5857 5855 5853 5851 5848 5846 5843 5841 5839 5836 5834 5832 5829 5827 5825
5856 5857 5858 5859 5861 5862 5864 5866 5867 5868 5869 5870 5870 5871 5872 5872 5872 5871 5871 5871 5870 5869 5868 5865 5863 5861 5858 5856 5853 5850 5848 5846 5844 5841 5838 5836 5833 5831 5829 5826 5824 5821 5819 5816
5855 5856 5857 5858 5858 5859 5860 5862 5862 5863 5864 5864 5865 5866 5866 5865 5865 5865 5865 5865 5864 5863 5862 5860 5857 5855 5852 5849 5847 5844 5841 5839 5836 5834 5831 5828 5826 5823 5821 5818 5815 5812 5810 5807
5855 5856 5856 5856 5857 5857 5858 5858 5859 5859 5860 5860 5861 5861 5861 5860 5860 5859 5859 5859 5858 5857 5855 5853 5851 5849 5846 5843 5840 5837 5835 5832 5830 5827 5824 5821 5819 5816 5813 5810 5807 5804 5801 5798
5854 5854 5855 5855 5855 5855 5855 5855 5855 5855 5856 5856 5856 5856 5857 5856 5855 5854 5853 5853 5852 5851 5849 5847 5845 5843 5840 5837 5834 5831 5828 5826 5824 5821 5819 5815 5812 5809 5805 5802 5798 5795 5791 5788
5853 5853 5853 5853 5853 5853 5853 5853 5852 5852 5852 5852 5851 5851 5851 5850 5850 5849 5848 5847 5846 5845 5843 5841 5839 5837 5834 5831 5828 5825 5823 5820 5818 5816 5813 5810 5806 5802 5798 5794 5790 5786 5782 5778
5852 5851 5851 5851 5851 5851 5851 5850 5849 5848 5848 5847 5846 5846 5847 5845 5844 5844 5843 5842 5841 5840 5838 5836 5833 5831 5828 5824 5822 5819 5817 5815 5812 5809 5806 5803 5799 5795 5791 5787 5782 5778 5774 5769
5850 5850 5850 5849 5849 5848 5848 5848 5847 5846 5845 5844 5843 5843 5843 5840 5839 5838 5838 5837 5835 5834 5832 5830 5827 5825 5821 5818 5816 5813 5811 5808 5805 5801 5798 5794 5791 5787 5783 5778 5774 5770 5765 5760
5850 5850 5849 5848 5847 5846 5845 5845 5844 5843 5842 5841 5840 5840 5838 5837 5836 5835 5833 5832 5830 5828 5826 5823 5820 5817 5814 5811 5809 5806 5803 5799 5796 5792 5788 5785 5781 5778 5774 5770 5765 5761 5756 5752
5849 5849 5847 5846 5845 5844 5843 5842 5841 5840 5838 5837 5837 5835 5835 5834 5832 5830 5827 5825 5823 5820 5818 5815 5812 5809 5806 5803 5800 5796 5793 5789 5786 5782 5779 5775 5772 5768 5765 5761 5757 5752 5748 5743
5848 5847 5846 5844 5843 5842 5841 5840 5838 5837 5835 5833 5831 5833 5830 5828 5826 5823 5821 5818 5815 5812 5809 5806 5803 5799 5796 5792 5789 5786 5782 5779 5776 5772 5769 5766 5762 5759 5755 5751 5747 5743 5739 5734
5846 5845 5844 5843 5841 5839 5838 5836 5835 5833 5831 5828 5826 5827 5824 5821 5818 5815 5812 5809 5806 5803 5799 5796 5792 5789 5785 5782 5778 5775 5772 5768 5765 5762 5758 5755 5752 5748 5745 5741 5738 5734 5730 5726
5845 5844 5843 5841 5841 5838 5835 5833 5831 5829 5826 5823 5821 5820 5815 5812 5809 5806 5802 5799 5796 5792 5789 5785 5781 5778 5774 5770 5767 5763 5760 5756 5753 5750 5747 5744 5740 5737 5734 5731 5728 5725 5721 5717
5844 5843 5841 5840 5837 5834 5832 5829 5826 5824 5820 5818 5815 5811 5807 5803 5799 5796 5792 5789 5785 5781 5778 5774 5770 5766 5762 5758 5754 5750 5746 5742 5739 5736 5734 5731 5728 5725 5723 5720 5717 5715 5711 5708
5842 5841 5838 5836 5832 5830 5828 5826 5823 5819 5815 5811 5808 5804 5799 5795 5791 5786 5782 5778 5774 5770 5766 5762 5757 5753 5749 5744 5740 5735 5731 5727 5724 5721 5719 5716 5714 5712 5710 5708 5706 5704 5701 5698
5839 5837 5835 5832 5828 5825 5823 5820 5817 5813 5809 5804 5800 5796 5791 5786 5782 5777 5772 5767 5763 5758 5753 5748 5742 5737 5732 5728 5723 5719 5715 5711 5707 5704 5702 5700 5698 5697 5696 5694 5693 5692 5690 5688
5835 5833 5830 5828 5823 5820 5817 5814 5809 5805 5800 5796 5791 5787 5781 5776 5771 5765 5760 5754 5749 5743 5737 5731 5726 5720 5714 5709 5704 5700 5696 5692 5688 5685 5683 5681 5679 5679 5679 5679 5678 5678 5678 5677
5831 5828 5824 5821 5819 5814 5813 5806 5802 5797 5792 5786 5781 5775 5770 5764 5759 5753 5746 5739 5733 5726 5720 5713 5706 5700 5694 5688 5683 5678 5674 5670 5666 5664 5661 5660 5659 5660 5660 5661 5662 5664 5665 5665
5826 5822 5818 5815 5811 5807 5803 5797 5792 5787 5782 5776 5770 5764 5758 5751 5747 5741 5731 5723 5715 5707 5699 5692 5684 5677 5671 5665 5659 5655 5651 5646 5643 5640 5638 5637 5637 5638 5640 5643 5645 5648 5650 5652
5821 5817 5813 5808 5804 5799 5795 5788 5782 5778 5771 5765 5758 5752 5745 5737 5730 5724 5714 5705 5695 5686 5677 5668 5661 5653 5646 5639 5632 5629 5625 5622 5619 5617 5615 5614 5614 5615 5618 5622 5627 5631 5635 5639
5817 5812 5808 5803 5798 5792 5787 5780 5775 5768 5763 5754 5746 5737 5729 5719 5710 5702 5691 5681 5671 5661 5652 5643 5634 5627 5620 5613 5607 5604 5602 5599 5596 5595 5594 5594 5593 5594 5597 5602 5608 5613 5619 5624
5811 5807 5802 5797 5791 5787 5779 5772 5767 5760 5750 5741 5732 5723 5712 5702 5691 5680 5669 5658 5647 5637 5627 5618 5609 5604 5597 5590 5585 5583 5582 5579 5577 5577 5576 5576 5576 5576 5579 5583 5589 5595 5603 5610
5805 5801 5795 5791 5786 5778 5770 5763 5755 5746 5738 5728 5717 5706 5694 5682 5670 5658 5646 5635 5624 5614 5605 5597 5589 5585 5580 5575 5570 5568 5566 5564 5562 5562 5561 5560 5560 5561 5563 5566 5572 5578 5586 5595
5800 5794 5789 5783 5777 5770 5762 5753 5744 5734 5723 5712 5700 5687 5673 5660 5647 5635 5624 5614 5604 5596 5588 5581 5575 5570 5566 5562 5558 5555 5553 5551 5549 5548 5548 5546 5546 5547 5548 5552 5557 5564 5571 5581
5794 5788 5782 5776 5769 5761 5753 5743 5732 5721 5709 5696 5683 5668 5654 5640 5628 5617 5607 5598 5590 5582 5576 5569 5564 5559 5555 5551 5547 5544 5540 5538 5536 5535 5534 5533 5533 5533 5535 5538 5544 5550 5559 5567
5788 5782 5775 5768 5759 5751 5741 5730 5718 5706 5693 5679 5665 5652 5638 5623 5611 5602 5594 5586 5579 5572 5566 5560 5554 5549 5545 5540 5536 5532 5528 5525 5522 5521 5520 5518 5518 5520 5522 5526 5532 5538 5547 5557
Wind_Speed
18 19 22 25 27 30 32 34 34 35 36 36 36 36 36 36 35 34 32 30 27 27 28 30 31 31 32 33 32 32 32 33 33 33 32 32 32 32 33 34 35 36 37 38
13 16 17 20 23 26 29 31 32 33 33 33 34 34 35 34 33 32 30 29 29 29 31 32 32 31 32 32 31 32 33 33 32 31 31 31 31 30 31 32 34 35 36 37
11 13 14 16 19 22 25 27 28 29 30 31 32 32 32 32 32 31 31 31 32 32 33 33 32 31 31 31 33 34 34 33 32 31 31 31 31 31 31 31 33 34 36 37
10 11 13 15 17 19 21 23 25 27 27 28 29 31 31 31 33 33 33 33 34 33 33 32 31 31 31 32 33 34 34 33 32 31 31 32 32 32 33 33 34 35 36 36
12 13 14 16 17 18 20 21 23 24 25 26 28 31 31 31 33 33 33 33 32 31 30 29 29 29 30 31 33 34 34 32 31 31 31 31 31 32 33 33 34 35 36 37
10 12 13 14 15 16 18 19 21 21 21 23 26 27 28 29 29 30 31 29 28 27 27 27 27 27 29 31 33 34 33 32 31 30 30 30 30 31 32 33 35 36 36 37
8 9 11 12 13 14 15 16 17 18 19 21 22 23 23 24 25 25 25 24 24 24 25 25 26 28 30 32 33 33 32 31 31 31 30 30 31 32 33 34 35 36 36 37
5 6 8 10 12 13 14 15 15 15 16 17 19 19 20 22 23 23 23 24 24 24 25 26 27 28 30 32 32 32 32 31 32 32 32 32 33 34 35 36 37 37 37 37
4 4 7 10 12 13 13 13 14 14 14 15 16 18 19 20 21 22 23 24 24 24 25 26 27 28 30 31 32 33 33 33 34 35 35 36 36 36 37 37 38 38 38 37
6 6 7 9 11 12 12 13 14 15 16 16 16 18 18 19 21 22 23 23 25 26 27 29 30 31 32 33 34 35 36 37 37 38 39 39 39 39 39 39 39 39 39 38
7 7 7 9 9 11 12 13 14 16 18 19 19 20 20 22 24 25 27 27 29 30 31 32 33 35 36 37 39 40 40 41 42 42 42 42 42 42 42 41 41 40 39 39
8 9 9 11 11 11 13 14 16 19 20 23 25 27 25 26 28 29 31 31 32 34 35 36 38 39 41 43 44 45 46 46 47 46 46 46 45 45 44 43 42 41 40 39
9 10 11 12 14 14 16 18 20 22 24 26 28 32 31 32 33 33 34 35 37 38 40 41 43 44 46 48 49 51 51 52 52 51 51 50 49 47 46 45 44 42 40 39
10 11 13 15 17 18 19 21 24 26 28 30 31 34 35 36 37 38 39 40 41 43 44 46 48 50 52 53 55 56 57 58 57 57 55 54 52 50 48 47 45 42 41 39
13 13 15 17 19 21 22 22 24 27 30 32 34 35 37 38 39 41 43 44 46 47 49 51 53 55 57 58 60 61 62 62 63 62 60 58 55 53 51 48 46 43 41 39
17 17 18 19 22 23 24 25 27 29 31 34 35 36 37 39 41 42 44 46 49 51 54 57 59 61 62 64 65 65 66 67 67 66 66 63 60 57 53 50 48 45 41 39
20 21 22 22 24 27 28 29 31 33 34 36 38 39 39 41 43 46 48 51 54 57 60 62 64 66 68 69 70 71 71 71 70 70 69 67 64 60 56 52 49 45 42 39
22 23 25 26 27 30 31 32 34 36 37 39 40 42 43 45 47 50 54 57 60 63 65 68 70 72 74 75 76 77 77 76 75 73 71 68 64 60 56 52 48 45 42 39
24 26 28 30 31 34 35 37 38 40 41 43 44 46 48 51 53 56 61 64 68 70 72 75 76 77 78 79 80 79 78 77 75 72 68 65 62 59 56 52 48 45 41 39
26 28 30 32 34 37 39 40 41 43 45 47 49 52 55 58 61 63 66 69 71 74 76 78 79 80 81 80 80 78 75 71 67 63 59 56 55 54 52 50 47 44 41 39
26 28 30 32 34 38 40 41 44 46 49 52 55 57 60 64 67 69 72 74 77 78 79 80 79 78 76 74 71 67 62 58 55 51 48 47 46 45 45 45 45 44 41 39
27 29 31 33 35 38 40 43 45 48 52 55 59 62 66 69 72 74 77 78 78 78 76 73 71 68 63 60 57 53 49 47 44 42 40 39 39 38 39 40 42 43 42 39
29 31 33 35 37 41 43 46 50 53 56 60 64 68 71 74 77 78 77 75 72 69 65 61 58 54 50 48 46 44 41 39 38 36 36 37 36 36 35 35 38 41 43 40
30 32 35 37 40 43 47 51 54 58 62 66 70 74 76 78 78 75 70 66 61 57 53 50 47 44 42 41 41 39 37 37 36 34 35 36 35 33 33 34 37 41 43 41
33 36 38 41 44 47 51 55 60 64 67 71 74 76 76 74 69 64 59 54 50 46 43 41 40 40 38 37 37 37 38 37 36 36 37 35 34 33 33 33 35 38 41 41
36 39 42 45 49 53 57 61 65 69 72 75 76 74 69 64 59 54 50 46 42 40 39 38 38 37 36 36 36 37 38 39 39 37 36 34 32 30 30 30 33 36 39 40
Wind_Direction
224 224 226 229 231 234 238 241 245 249 252 255 258 261 263 266 267 269 271 274 279 284 287 290 294 295 296 297 298 299 301 304 307 308 307 305 304 302 298 294 292 289 287 284
217 220 225 229 231 233 238 241 244 247 249 252 255 258 261 263 265 267 270 274 279 283 286 289 292 293 295 297 298 301 303 306 308 310 311 310 309 306 303 298 294 291 288 286
224 228 230 232 234 235 238 241 244 246 248 251 254 256 259 261 265 268 272 276 280 283 286 289 290 291 292 295 298 301 304 308 311 313 314 314 312 310 307 304 300 296 292 288
237 244 244 244 245 246 246 247 249 250 251 251 254 255 257 263 267 271 274 278 281 283 284 284 285 287 290 294 297 300 304 308 311 313 314 315 314 312 310 308 305 301 296 292
252 254 255 254 253 255 256 258 260 261 260 259 258 260 261 263 266 271 275 278 280 281 280 280 283 285 289 292 295 298 302 305 308 310 311 313 314 314 313 311 308 305 300 295
259 261 261 260 260 262 266 267 269 270 268 266 265 266 267 268 269 272 274 277 278 278 278 279 281 285 288 289 291 294 297 299 301 304 307 310 313 315 315 315 313 309 305 299
267 264 266 268 269 270 273 275 276 275 273 270 270 271 271 271 271 271 272 273 273 274 276 278 281 282 283 283 285 287 290 293 296 300 304 309 312 315 316 316 315 314 311 306
288 279 274 275 275 277 280 283 283 283 278 273 273 273 272 271 271 272 273 273 274 275 276 277 276 275 276 278 280 283 287 291 295 300 305 309 311 313 315 316 316 316 315 312
314 309 292 284 281 282 285 287 291 290 287 281 277 276 275 278 279 280 280 280 280 280 278 275 275 275 276 278 281 285 290 295 299 303 306 309 311 312 312 314 315 316 315 313
330 319 303 299 294 292 291 293 293 294 293 290 283 280 280 283 286 287 286 285 284 282 281 280 279 281 282 285 289 293 296 299 301 304 305 307 309 309 310 311 313 314 314 314
339 331 322 315 309 304 300 298 296 295 295 296 295 291 293 293 293 292 290 287 286 285 285 284 286 289 291 294 296 298 300 301 302 303 304 305 306 307 307 308 309 311 312 312
335 329 322 318 316 308 303 301 300 298 299 299 301 301 301 298 296 295 292 289 287 287 288 290 291 293 295 297 299 300 301 301 302 302 303 303 303 304 304 305 306 307 308 309
334 325 319 315 315 313 309 307 305 304 303 303 303 302 302 299 297 294 292 290 289 289 290 291 293 295 296 297 298 299 299 299 300 300 300 301 301 301 301 302 302 303 304 306
330 323 316 312 309 310 308 307 305 302 301 300 299 298 298 296 295 294 293 291 291 291 292 293 294 294 295 295 295 295 296 297 298 298 298 298 297 297 297 298 298 299 300 301
323 320 314 309 306 307 305 302 298 296 296 296 296 294 294 293 292 292 292 292 292 292 292 292 292 292 292 292 292 293 293 294 295 295 295 294 293 292 293 293 293 294 294 295
320 317 314 310 305 305 304 302 299 296 295 295 295 294 293 292 291 290 290 290 290 290 290 289 289 289 289 289 289 289 289 289 290 291 291 291 290 289 288 287 287 288 289 289
317 314 313 311 307 305 305 304 301 299 299 299 298 297 296 295 295 293 292 291 291 291 290 288 287 287 287 286 286 286 287 286 286 287 288 288 287 285 284 283 282 282 282 282
316 313 312 311 308 306 307 304 303 303 303 302 301 301 300 299 296 294 292 291 291 289 288 287 286 285 285 285 285 286 286 286 286 286 286 285 284 282 279 277 275 274 275 276
315 314 313 313 311 310 310 310 310 309 307 307 306 304 300 297 295 292 290 290 290 289 288 288 287 287 287 287 287 287 287 287 286 285 284 283 280 277 273 271 269 266 265 267
313 312 312 313 312 312 312 313 313 312 308 309 306 303 301 299 297 296 294 293 292 291 291 290 290 290 290 289 289 289 288 287 286 285 283 281 279 274 268 264 261 258 255 256
312 312 313 313 313 312 314 314 313 310 309 308 307 306 305 303 302 301 299 297 296 296 295 294 294 293 293 292 291 290 289 287 285 283 282 279 277 272 265 257 253 249 246 246
318 317 317 317 317 315 316 315 314 312 312 310 309 307 306 304 303 302 300 300 299 299 298 297 297 296 295 294 293 292 291 288 286 283 281 279 277 272 264 255 246 240 236 236
322 322 322 322 321 321 321 320 318 317 315 313 311 310 308 307 306 305 305 304 304 303 302 301 300 299 297 296 295 294 292 289 287 284 283 283 279 273 264 255 242 235 229 228
326 327 326 326 326 325 323 322 321 319 317 316 314 313 312 310 310 310 309 309 308 307 306 305 304 303 301 298 297 295 293 291 289 287 286 285 279 271 263 253 242 234 227 222
331 331 330 329 328 326 325 323 322 321 319 317 316 315 314 313 313 313 313 313 312 311 310 309 308 306 304 302 299 296 293 291 290 289 288 283 277 270 259 251 241 233 224 218
333 332 330 329 329 328 327 325 324 322 320 318 317 317 317 317 317 318 318 317 316 315 313 312 311 310 308 305 302 299 295 292 291 290 286 283 276 265 254 245 237 231 221 215